sat.trackr.live / text

‹ back to catalog

ONEWEB-0560

NORAD 55145 · 2023-004F

PAYLOAD ACTIVE UNKNOWN

§ Identity

Operator
Country
UK
Launch date
2023-01-10
Launch site
AFETR
Launch vehicle
Mass (kg)
RCS (m²)

Purposes: comms

External: N2YO · Heavens-Above · Gunter

§ Orbital elements

Epoch: 2026-09-19T11:09:26.567712Z

Period
109.20 min
Inclination
87.9160°
Eccentricity
0.0001774
Mean motion
13.18686384 rev/d
Perigee alt
1,188.4 km
Apogee alt
1,191.1 km
Semi-major
7,567.9 km
B*
-9.9789e-5
RAAN
316.7223°
Arg perigee
89.2285°
Mean anomaly
270.9051°
Rev number
18,213

§ Raw data

ONEWEB-05601 55145U 23004F   26262.46489083 -.00000026  00000+0 -99789-4 0  99942 55145  87.9160 316.7223 0001774  89.2285 270.9051 13.18686384182137

JSON: /api/v1/satellites/55145 · /tle

For live sub-satellite position, see the globe view (requires WebGL).

§ Visibility from observer

Set your observer location to see the next 7 days of passes ≥ 10°. The values pass through the URL so the page stays shareable.

No JS? Fill the form by hand. The geolocation button needs JavaScript.